Year,Month,Day,Hour,Minute,Value (Times are PST for temperature in C)
2008,09,29,00,00,9.10
2008,09,29,00,01,9.10
2008,09,29,00,02,9.00
2008,09,29,00,03,9.00
2008,09,29,00,04,9.00
2008,09,29,00,05,8.90
2008,09,29,00,06,8.90
2008,09,29,00,07,8.90
2008,09,29,00,08,8.90
2008,09,29,00,09,8.80
2008,09,29,00,10,8.80
2008,09,29,00,11,8.80
2008,09,29,00,12,8.80
2008,09,29,00,13,8.80
2008,09,29,00,14,8.80
2008,09,29,00,15,8.80
2008,09,29,00,16,8.80
2008,09,29,00,17,8.80
2008,09,29,00,18,8.80
2008,09,29,00,19,8.80
2008,09,29,00,20,8.70
2008,09,29,00,21,8.70
2008,09,29,00,22,8.70
2008,09,29,00,23,8.70
2008,09,29,00,24,8.70
2008,09,29,00,25,8.70
2008,09,29,00,26,8.60
2008,09,29,00,27,8.60
2008,09,29,00,28,8.60
2008,09,29,00,29,8.60
2008,09,29,00,30,8.60
2008,09,29,00,31,8.50
2008,09,29,00,32,8.50
2008,09,29,00,33,8.50
2008,09,29,00,34,8.40
2008,09,29,00,35,8.40
2008,09,29,00,36,8.40
2008,09,29,00,37,8.40
2008,09,29,00,38,8.40
2008,09,29,00,39,8.30
2008,09,29,00,40,8.30
2008,09,29,00,41,8.30
2008,09,29,00,42,8.30
2008,09,29,00,43,8.30
2008,09,29,00,44,8.30
2008,09,29,00,45,8.30
2008,09,29,00,46,8.30
2008,09,29,00,47,8.30
2008,09,29,00,48,8.30
2008,09,29,00,49,8.20
2008,09,29,00,50,8.20
2008,09,29,00,51,8.20
2008,09,29,00,52,8.20
2008,09,29,00,53,8.20
2008,09,29,00,54,8.20
2008,09,29,00,55,8.20
2008,09,29,00,56,8.20
2008,09,29,00,57,8.20
2008,09,29,00,58,8.20
2008,09,29,00,59,8.10
2008,09,29,01,00,8.00
2008,09,29,01,01,8.00
2008,09,29,01,02,8.00
2008,09,29,01,03,8.00
2008,09,29,01,04,8.00
2008,09,29,01,05,8.00
2008,09,29,01,06,8.00
2008,09,29,01,07,8.00
2008,09,29,01,08,8.00
2008,09,29,01,09,7.90
2008,09,29,01,10,7.90
2008,09,29,01,11,7.90
2008,09,29,01,12,7.90
2008,09,29,01,13,7.90
2008,09,29,01,14,7.90
2008,09,29,01,15,7.90
2008,09,29,01,16,7.90
2008,09,29,01,17,7.90
2008,09,29,01,18,7.90
2008,09,29,01,19,7.90
2008,09,29,01,20,7.90
2008,09,29,01,21,7.90
2008,09,29,01,22,7.90
2008,09,29,01,23,7.90
2008,09,29,01,24,7.90
2008,09,29,01,25,8.00
2008,09,29,01,26,8.00
2008,09,29,01,27,8.00
2008,09,29,01,28,8.00
2008,09,29,01,29,8.00
2008,09,29,01,30,8.00
2008,09,29,01,31,8.00
2008,09,29,01,32,8.00
2008,09,29,01,33,8.00
2008,09,29,01,34,8.00
2008,09,29,01,35,8.00
2008,09,29,01,36,8.00
2008,09,29,01,37,8.00
2008,09,29,01,38,8.00
2008,09,29,01,39,8.00
2008,09,29,01,40,8.00
2008,09,29,01,41,8.00
2008,09,29,01,42,7.90
2008,09,29,01,43,7.90
2008,09,29,01,44,7.90
2008,09,29,01,45,7.90
2008,09,29,01,46,7.90
2008,09,29,01,47,7.90
2008,09,29,01,48,7.90
2008,09,29,01,49,7.90
2008,09,29,01,50,7.90
2008,09,29,01,51,7.90
2008,09,29,01,52,7.90
2008,09,29,01,53,7.80
2008,09,29,01,54,7.80
2008,09,29,01,55,7.80
2008,09,29,01,56,7.80
2008,09,29,01,57,7.80
2008,09,29,01,58,7.80
2008,09,29,01,59,7.70
2008,09,29,02,00,7.70
2008,09,29,02,01,7.70
2008,09,29,02,02,7.70
2008,09,29,02,03,7.70
2008,09,29,02,04,7.60
2008,09,29,02,05,7.60
2008,09,29,02,06,7.60
2008,09,29,02,07,7.50
2008,09,29,02,08,7.50
2008,09,29,02,09,7.50
2008,09,29,02,10,7.50
2008,09,29,02,11,7.40
2008,09,29,02,12,7.40
2008,09,29,02,13,7.40
2008,09,29,02,14,7.40
2008,09,29,02,15,7.40
2008,09,29,02,16,7.40
2008,09,29,02,17,7.40
2008,09,29,02,18,7.40
2008,09,29,02,19,7.40
2008,09,29,02,20,7.40
2008,09,29,02,21,7.40
2008,09,29,02,22,7.40
2008,09,29,02,23,7.40
2008,09,29,02,24,7.40
2008,09,29,02,25,7.40
2008,09,29,02,26,7.40
2008,09,29,02,27,7.50
2008,09,29,02,28,7.50
2008,09,29,02,29,7.50
2008,09,29,02,30,7.50
2008,09,29,02,31,7.50
2008,09,29,02,32,7.50
2008,09,29,02,33,7.50
2008,09,29,02,34,7.50
2008,09,29,02,35,7.50
2008,09,29,02,36,7.50
2008,09,29,02,37,7.50
2008,09,29,02,38,7.50
2008,09,29,02,39,7.50
2008,09,29,02,40,7.50
2008,09,29,02,41,7.50
2008,09,29,02,42,7.50
2008,09,29,02,43,7.50
2008,09,29,02,44,7.50
2008,09,29,02,45,7.50
2008,09,29,02,46,7.50
2008,09,29,02,47,7.50
2008,09,29,02,48,7.50
2008,09,29,02,49,7.50
2008,09,29,02,50,7.50
2008,09,29,02,51,7.50
2008,09,29,02,52,7.50
2008,09,29,02,53,7.50
2008,09,29,02,54,7.40
2008,09,29,02,55,7.40
2008,09,29,02,56,7.40
2008,09,29,02,57,7.40
2008,09,29,02,58,7.40
2008,09,29,02,59,7.40
2008,09,29,03,00,7.30
2008,09,29,03,01,7.30
2008,09,29,03,02,7.30
2008,09,29,03,03,7.30
2008,09,29,03,04,7.30
2008,09,29,03,05,7.30
2008,09,29,03,06,7.30
2008,09,29,03,07,7.20
2008,09,29,03,08,7.20
2008,09,29,03,09,7.20
2008,09,29,03,10,7.20
2008,09,29,03,11,7.20
2008,09,29,03,12,7.20
2008,09,29,03,13,7.20
2008,09,29,03,14,7.20
2008,09,29,03,15,7.20
2008,09,29,03,16,7.20
2008,09,29,03,17,7.20
2008,09,29,03,18,7.20
2008,09,29,03,19,7.20
2008,09,29,03,20,7.20
2008,09,29,03,21,7.20
2008,09,29,03,22,7.20
2008,09,29,03,23,7.20
2008,09,29,03,24,7.20
2008,09,29,03,25,7.20
2008,09,29,03,26,7.20
2008,09,29,03,27,7.20
2008,09,29,03,28,7.20
2008,09,29,03,29,7.20
2008,09,29,03,30,7.20
2008,09,29,03,31,7.20
2008,09,29,03,32,7.20
2008,09,29,03,33,7.20
2008,09,29,03,34,7.20
2008,09,29,03,35,7.20
2008,09,29,03,36,7.20
2008,09,29,03,37,7.20
2008,09,29,03,38,7.20
2008,09,29,03,39,7.20
2008,09,29,03,40,7.20
2008,09,29,03,41,7.20
2008,09,29,03,42,7.20
2008,09,29,03,43,7.20
2008,09,29,03,44,7.20
2008,09,29,03,45,7.20
2008,09,29,03,46,7.20
2008,09,29,03,47,7.20
2008,09,29,03,48,7.20
2008,09,29,03,49,7.20
2008,09,29,03,50,7.20
2008,09,29,03,51,7.20
2008,09,29,03,52,7.20
2008,09,29,03,53,7.20
2008,09,29,03,54,7.20
2008,09,29,03,55,7.20
2008,09,29,03,56,7.20
2008,09,29,03,57,7.20
2008,09,29,03,58,7.20
2008,09,29,03,59,7.20
2008,09,29,04,00,7.20
2008,09,29,04,01,7.20
2008,09,29,04,02,7.10
2008,09,29,04,03,7.10
2008,09,29,04,04,7.10
2008,09,29,04,05,7.10
2008,09,29,04,06,7.10
2008,09,29,04,07,7.10
2008,09,29,04,08,7.10
2008,09,29,04,09,7.10
2008,09,29,04,10,7.00
2008,09,29,04,11,7.10
2008,09,29,04,12,7.10
2008,09,29,04,13,7.10
2008,09,29,04,14,7.10
2008,09,29,04,15,7.10
2008,09,29,04,16,7.10
2008,09,29,04,17,7.00
2008,09,29,04,18,7.00
2008,09,29,04,19,7.00
2008,09,29,04,20,7.00
2008,09,29,04,21,7.00
2008,09,29,04,22,7.00
2008,09,29,04,23,7.00
2008,09,29,04,24,7.00
2008,09,29,04,25,6.90
2008,09,29,04,26,6.90
2008,09,29,04,27,6.90
2008,09,29,04,28,6.90
2008,09,29,04,29,6.90
2008,09,29,04,30,6.90
2008,09,29,04,31,6.90
2008,09,29,04,32,6.90
2008,09,29,04,33,6.90
2008,09,29,04,34,6.90
2008,09,29,04,35,6.80
2008,09,29,04,36,6.80
2008,09,29,04,37,6.80
2008,09,29,04,38,6.80
2008,09,29,04,39,6.80
2008,09,29,04,40,6.80
2008,09,29,04,41,6.80
2008,09,29,04,42,6.80
2008,09,29,04,43,6.80
2008,09,29,04,44,6.80
2008,09,29,04,45,6.80
2008,09,29,04,46,6.80
2008,09,29,04,47,6.80
2008,09,29,04,48,6.80
2008,09,29,04,49,6.80
2008,09,29,04,50,6.80
2008,09,29,04,51,6.80
2008,09,29,04,52,6.80
2008,09,29,04,53,6.80
2008,09,29,04,54,6.80
2008,09,29,04,55,6.80
2008,09,29,04,56,6.90
2008,09,29,04,57,6.90
2008,09,29,04,58,6.90
2008,09,29,04,59,6.90
2008,09,29,05,00,6.90
2008,09,29,05,01,6.90
2008,09,29,05,02,6.90
2008,09,29,05,03,6.90
2008,09,29,05,04,6.90
2008,09,29,05,05,6.90
2008,09,29,05,06,6.90
2008,09,29,05,07,6.90
2008,09,29,05,08,6.90
2008,09,29,05,09,6.90
2008,09,29,05,10,6.90
2008,09,29,05,11,6.90
2008,09,29,05,12,6.90
2008,09,29,05,13,6.90
2008,09,29,05,14,6.90
2008,09,29,05,15,6.80
2008,09,29,05,16,6.90
2008,09,29,05,17,6.80
2008,09,29,05,18,6.80
2008,09,29,05,19,6.80
2008,09,29,05,20,6.80
2008,09,29,05,21,6.80
2008,09,29,05,22,6.80
2008,09,29,05,23,6.80
2008,09,29,05,24,6.80
2008,09,29,05,25,6.90
2008,09,29,05,26,6.90
2008,09,29,05,27,6.90
2008,09,29,05,28,6.90
2008,09,29,05,29,6.90
2008,09,29,05,30,6.90
2008,09,29,05,31,6.90
2008,09,29,05,32,6.90
2008,09,29,05,33,6.90
2008,09,29,05,34,6.90
2008,09,29,05,35,6.90
2008,09,29,05,36,6.90
2008,09,29,05,37,6.80
2008,09,29,05,38,6.80
2008,09,29,05,39,6.80
2008,09,29,05,40,6.80
2008,09,29,05,41,6.80
2008,09,29,05,42,6.80
2008,09,29,05,43,6.80
2008,09,29,05,44,6.80
2008,09,29,05,45,6.70
2008,09,29,05,46,6.70
2008,09,29,05,47,6.70
2008,09,29,05,48,6.70
2008,09,29,05,49,6.70
2008,09,29,05,50,6.70
2008,09,29,05,51,6.70
2008,09,29,05,52,6.70
2008,09,29,05,53,6.70
2008,09,29,05,54,6.70
2008,09,29,05,55,6.70
2008,09,29,05,56,6.70
2008,09,29,05,57,6.70
2008,09,29,05,58,6.70
2008,09,29,05,59,6.70
2008,09,29,06,00,6.70
2008,09,29,06,01,6.70
2008,09,29,06,02,6.70
2008,09,29,06,03,6.70
2008,09,29,06,04,6.70
2008,09,29,06,05,6.70
2008,09,29,06,06,6.70
2008,09,29,06,07,6.70
2008,09,29,06,08,6.70
2008,09,29,06,09,6.70
2008,09,29,06,10,6.70
2008,09,29,06,11,6.70
2008,09,29,06,12,6.70
2008,09,29,06,13,6.70
2008,09,29,06,14,6.70
2008,09,29,06,15,6.70
2008,09,29,06,16,6.70
2008,09,29,06,17,6.70
2008,09,29,06,18,6.60
2008,09,29,06,19,6.60
2008,09,29,06,20,6.60
2008,09,29,06,21,6.60
2008,09,29,06,22,6.60
2008,09,29,06,23,6.60
2008,09,29,06,24,6.60
2008,09,29,06,25,6.60
2008,09,29,06,26,6.60
2008,09,29,06,27,6.60
2008,09,29,06,28,6.60
2008,09,29,06,29,6.60
2008,09,29,06,30,6.60
2008,09,29,06,31,6.60
2008,09,29,06,32,6.60
2008,09,29,06,33,6.60
2008,09,29,06,34,6.60
2008,09,29,06,35,6.60
2008,09,29,06,36,6.60
2008,09,29,06,37,6.60
2008,09,29,06,38,6.60
2008,09,29,06,39,6.60
2008,09,29,06,40,6.60
2008,09,29,06,41,6.60
2008,09,29,06,42,6.60
2008,09,29,06,43,6.60
2008,09,29,06,44,6.60
2008,09,29,06,45,6.70
2008,09,29,06,46,6.70
2008,09,29,06,47,6.70
2008,09,29,06,48,6.70
2008,09,29,06,49,6.70
2008,09,29,06,50,6.70
2008,09,29,06,51,6.70
2008,09,29,06,52,6.70
2008,09,29,06,53,6.70
2008,09,29,06,54,6.70
2008,09,29,06,55,6.70
2008,09,29,06,56,6.70
2008,09,29,06,57,6.70
2008,09,29,06,58,6.70
2008,09,29,06,59,6.70
2008,09,29,07,00,6.70
2008,09,29,07,01,6.70
2008,09,29,07,02,6.70
2008,09,29,07,03,6.70
2008,09,29,07,04,6.60
2008,09,29,07,05,6.60
2008,09,29,07,06,6.60
2008,09,29,07,07,6.60
2008,09,29,07,08,6.60
2008,09,29,07,09,6.50
2008,09,29,07,10,6.50
2008,09,29,07,11,6.50
2008,09,29,07,12,6.50
2008,09,29,07,13,6.50
2008,09,29,07,14,6.60
2008,09,29,07,15,6.60
2008,09,29,07,16,6.60
2008,09,29,07,17,6.60
2008,09,29,07,18,6.60
2008,09,29,07,19,6.70
2008,09,29,07,20,6.70
2008,09,29,07,21,6.70
2008,09,29,07,22,6.60
2008,09,29,07,23,6.60
2008,09,29,07,24,6.70
2008,09,29,07,25,6.70
2008,09,29,07,26,6.70
2008,09,29,07,27,6.70
2008,09,29,07,28,6.70
2008,09,29,07,29,6.70
2008,09,29,07,30,6.70
2008,09,29,07,31,6.80
2008,09,29,07,32,6.80
2008,09,29,07,33,6.80
2008,09,29,07,34,6.80
2008,09,29,07,35,6.80
2008,09,29,07,36,6.80
2008,09,29,07,37,6.80
2008,09,29,07,38,6.80
2008,09,29,07,39,6.80
2008,09,29,07,40,6.80
2008,09,29,07,41,6.80
2008,09,29,07,42,6.70
2008,09,29,07,43,6.70
2008,09,29,07,44,6.70
2008,09,29,07,45,6.70
2008,09,29,07,46,6.80
2008,09,29,07,47,6.80
2008,09,29,07,48,6.80
2008,09,29,07,49,6.80
2008,09,29,07,50,6.80
2008,09,29,07,51,6.80
2008,09,29,07,52,6.80
2008,09,29,07,53,6.80
2008,09,29,07,54,6.90
2008,09,29,07,55,6.90
2008,09,29,07,56,6.90
2008,09,29,07,57,6.90
2008,09,29,07,58,7.00
2008,09,29,07,59,7.00
2008,09,29,08,00,7.00
2008,09,29,08,01,7.00
2008,09,29,08,02,7.10
2008,09,29,08,03,7.10
2008,09,29,08,04,7.10
2008,09,29,08,05,7.10
2008,09,29,08,06,7.20
2008,09,29,08,07,7.20
2008,09,29,08,08,7.20
2008,09,29,08,09,7.20
2008,09,29,08,10,7.20
2008,09,29,08,11,7.20
2008,09,29,08,12,7.20
2008,09,29,08,13,7.20
2008,09,29,08,14,7.30
2008,09,29,08,15,7.30
2008,09,29,08,16,7.30
2008,09,29,08,17,7.30
2008,09,29,08,18,7.30
2008,09,29,08,19,7.40
2008,09,29,08,20,7.40
2008,09,29,08,21,7.40
2008,09,29,08,22,7.40
2008,09,29,08,23,7.40
2008,09,29,08,24,7.50
2008,09,29,08,25,7.50
2008,09,29,08,26,7.50
2008,09,29,08,27,7.60
2008,09,29,08,28,7.60
2008,09,29,08,29,7.60
2008,09,29,08,30,7.60
2008,09,29,08,31,7.60
2008,09,29,08,32,7.70
2008,09,29,08,33,7.70
2008,09,29,08,34,7.70
2008,09,29,08,35,7.80
2008,09,29,08,36,7.80
2008,09,29,08,37,7.80
2008,09,29,08,38,7.90
2008,09,29,08,39,7.90
2008,09,29,08,40,8.00
2008,09,29,08,41,8.00
2008,09,29,08,42,8.10
2008,09,29,08,43,8.20
2008,09,29,08,44,8.20
2008,09,29,08,45,8.30
2008,09,29,08,46,8.30
2008,09,29,08,47,8.40
2008,09,29,08,48,8.50
2008,09,29,08,49,8.50
2008,09,29,08,50,8.60
2008,09,29,08,51,8.60
2008,09,29,08,52,8.60
2008,09,29,08,53,8.70
2008,09,29,08,54,8.70
2008,09,29,08,55,8.80
2008,09,29,08,56,8.80
2008,09,29,08,57,8.90
2008,09,29,08,58,9.00
2008,09,29,08,59,9.10
2008,09,29,09,00,9.10
2008,09,29,09,01,9.20
2008,09,29,09,02,9.30
2008,09,29,09,03,9.30
2008,09,29,09,04,9.40
2008,09,29,09,05,9.40
2008,09,29,09,06,9.50
2008,09,29,09,07,9.60
2008,09,29,09,08,9.60
2008,09,29,09,09,9.70
2008,09,29,09,10,9.80
2008,09,29,09,11,9.90
2008,09,29,09,12,9.90
2008,09,29,09,13,10.00
2008,09,29,09,14,10.00
2008,09,29,09,15,10.10
2008,09,29,09,16,10.20
2008,09,29,09,17,10.20
2008,09,29,09,18,10.30
2008,09,29,09,19,10.40
2008,09,29,09,20,10.40
2008,09,29,09,21,10.50
2008,09,29,09,22,10.60
2008,09,29,09,23,10.70
2008,09,29,09,24,10.80
2008,09,29,09,25,10.90
2008,09,29,09,26,11.00
2008,09,29,09,27,11.10
2008,09,29,09,28,11.20
2008,09,29,09,29,11.30
2008,09,29,09,30,11.40
2008,09,29,09,31,11.50
2008,09,29,09,32,11.50
2008,09,29,09,33,11.60
2008,09,29,09,34,11.70
2008,09,29,09,35,11.80
2008,09,29,09,36,11.80
2008,09,29,09,37,11.90
2008,09,29,09,38,11.90
2008,09,29,09,39,12.00
2008,09,29,09,40,12.00
2008,09,29,09,41,12.10
2008,09,29,09,42,12.10
2008,09,29,09,43,12.10
2008,09,29,09,44,12.20
2008,09,29,09,45,12.30
2008,09,29,09,46,12.30
2008,09,29,09,47,12.40
2008,09,29,09,48,12.50
2008,09,29,09,49,12.60
2008,09,29,09,50,12.60
2008,09,29,09,51,12.70
2008,09,29,09,52,12.80
2008,09,29,09,53,12.80
2008,09,29,09,54,12.90
2008,09,29,09,55,13.00
2008,09,29,09,56,13.10
2008,09,29,09,57,13.20
2008,09,29,09,58,13.30
2008,09,29,09,59,13.40
2008,09,29,10,00,13.50
2008,09,29,10,01,13.60
2008,09,29,10,02,13.70
2008,09,29,10,03,13.70
2008,09,29,10,04,13.80
2008,09,29,10,05,13.80
2008,09,29,10,06,13.90
2008,09,29,10,07,14.00
2008,09,29,10,08,14.00
2008,09,29,10,09,14.10
2008,09,29,10,10,14.10
2008,09,29,10,11,14.20
2008,09,29,10,12,14.20
2008,09,29,10,13,14.20
2008,09,29,10,14,14.30
2008,09,29,10,15,14.30
2008,09,29,10,16,14.30
2008,09,29,10,17,14.30
2008,09,29,10,18,14.20
2008,09,29,10,19,14.20
2008,09,29,10,20,14.20
2008,09,29,10,21,14.20
2008,09,29,10,22,14.20
2008,09,29,10,23,14.20
2008,09,29,10,24,14.20
2008,09,29,10,25,14.30
2008,09,29,10,26,14.40
2008,09,29,10,27,14.50
2008,09,29,10,28,14.60
2008,09,29,10,29,14.70
2008,09,29,10,30,14.90
2008,09,29,10,31,15.00
2008,09,29,10,32,15.00
2008,09,29,10,33,15.10
2008,09,29,10,34,15.30
2008,09,29,10,35,15.40
2008,09,29,10,36,15.50
2008,09,29,10,37,15.60
2008,09,29,10,38,15.80
2008,09,29,10,39,15.90
2008,09,29,10,40,16.00
2008,09,29,10,41,16.00
2008,09,29,10,42,16.10
2008,09,29,10,43,16.20
2008,09,29,10,44,16.30
2008,09,29,10,45,16.40
2008,09,29,10,46,16.50
2008,09,29,10,47,16.60
2008,09,29,10,48,16.70
2008,09,29,10,49,16.80
2008,09,29,10,50,16.90
2008,09,29,10,51,17.00
2008,09,29,10,52,17.10
2008,09,29,10,53,17.20
2008,09,29,10,54,17.30
2008,09,29,10,55,17.40
2008,09,29,10,56,17.50
2008,09,29,10,57,17.60
2008,09,29,10,58,17.70
2008,09,29,10,59,17.80
2008,09,29,11,00,17.80
2008,09,29,11,01,17.90
2008,09,29,11,02,18.00
2008,09,29,11,03,18.10
2008,09,29,11,04,18.20
2008,09,29,11,05,18.20
2008,09,29,11,06,18.30
2008,09,29,11,07,18.40
2008,09,29,11,08,18.50
2008,09,29,11,09,18.50
2008,09,29,11,10,18.60
2008,09,29,11,11,18.70
2008,09,29,11,12,18.80
2008,09,29,11,13,18.80
2008,09,29,11,14,18.90
2008,09,29,11,15,18.90
2008,09,29,11,16,19.00
2008,09,29,11,17,19.00
2008,09,29,11,18,19.10
2008,09,29,11,19,19.10
2008,09,29,11,20,19.10
2008,09,29,11,21,19.00
2008,09,29,11,22,19.00
2008,09,29,11,23,19.00
2008,09,29,11,24,19.10
2008,09,29,11,25,19.10
2008,09,29,11,26,19.10
2008,09,29,11,27,19.10
2008,09,29,11,28,19.20
2008,09,29,11,29,19.20
2008,09,29,11,30,19.30
2008,09,29,11,31,19.30
2008,09,29,11,32,19.40
2008,09,29,11,33,19.50
2008,09,29,11,34,19.60
2008,09,29,11,35,19.60
2008,09,29,11,36,19.70
2008,09,29,11,37,19.70
2008,09,29,11,38,19.70
2008,09,29,11,39,19.70
2008,09,29,11,40,19.70
2008,09,29,11,41,19.70
2008,09,29,11,42,19.70
2008,09,29,11,43,19.70
2008,09,29,11,44,19.70
2008,09,29,11,45,19.70
2008,09,29,11,46,19.70
2008,09,29,11,47,19.80
2008,09,29,11,48,19.80
2008,09,29,11,49,19.80
2008,09,29,11,50,19.90
2008,09,29,11,51,19.90
2008,09,29,11,52,20.00
2008,09,29,11,53,20.10
2008,09,29,11,54,20.10
2008,09,29,11,55,20.10
2008,09,29,11,56,20.20
2008,09,29,11,57,20.20
2008,09,29,11,58,20.30
2008,09,29,11,59,20.30
2008,09,29,12,00,20.40
2008,09,29,12,01,20.40
2008,09,29,12,02,20.40
2008,09,29,12,03,20.40
2008,09,29,12,04,20.40
2008,09,29,12,05,20.40
2008,09,29,12,06,20.40
2008,09,29,12,07,20.40
2008,09,29,12,08,20.40
2008,09,29,12,09,20.40
2008,09,29,12,10,20.40
2008,09,29,12,11,20.40
2008,09,29,12,12,20.40
2008,09,29,12,13,20.50
2008,09,29,12,14,20.50
2008,09,29,12,15,20.60
2008,09,29,12,16,20.60
2008,09,29,12,17,20.60
2008,09,29,12,18,20.70
2008,09,29,12,19,20.70
2008,09,29,12,20,20.80
2008,09,29,12,21,20.80
2008,09,29,12,22,20.80
2008,09,29,12,23,20.80
2008,09,29,12,24,20.80
2008,09,29,12,25,20.90
2008,09,29,12,26,21.00
2008,09,29,12,27,21.00
2008,09,29,12,28,21.10
2008,09,29,12,29,21.20
2008,09,29,12,30,21.30
2008,09,29,12,31,21.30
2008,09,29,12,32,21.30
2008,09,29,12,33,21.30
2008,09,29,12,34,21.30
2008,09,29,12,35,21.30
2008,09,29,12,36,21.30
2008,09,29,12,37,21.30
2008,09,29,12,38,21.40
2008,09,29,12,39,21.40
2008,09,29,12,40,21.40
2008,09,29,12,41,21.50
2008,09,29,12,42,21.60
2008,09,29,12,43,21.60
2008,09,29,12,44,21.60
2008,09,29,12,45,21.60
2008,09,29,12,46,21.80
2008,09,29,12,47,21.80
2008,09,29,12,48,21.90
2008,09,29,12,49,22.00
2008,09,29,12,50,22.10
2008,09,29,12,51,22.10
2008,09,29,12,52,22.10
2008,09,29,12,53,22.10
2008,09,29,12,54,22.10
2008,09,29,12,55,22.10
2008,09,29,12,56,22.10
2008,09,29,12,57,22.10
2008,09,29,12,58,22.20
2008,09,29,12,59,22.20
2008,09,29,13,00,22.30
2008,09,29,13,01,22.30
2008,09,29,13,02,22.30
2008,09,29,13,03,22.30
2008,09,29,13,04,22.30
2008,09,29,13,05,22.30
2008,09,29,13,06,22.40
2008,09,29,13,07,22.50
2008,09,29,13,08,22.70
2008,09,29,13,09,22.80
2008,09,29,13,10,23.00
2008,09,29,13,11,23.10
2008,09,29,13,12,23.30
2008,09,29,13,13,23.40
2008,09,29,13,14,23.50
2008,09,29,13,15,23.60
2008,09,29,13,16,23.60
2008,09,29,13,17,23.70
2008,09,29,13,18,23.80
2008,09,29,13,19,23.80
2008,09,29,13,20,23.70
2008,09,29,13,21,23.70
2008,09,29,13,22,23.70
2008,09,29,13,23,23.70
2008,09,29,13,24,23.80
2008,09,29,13,25,23.70
2008,09,29,13,26,23.60
2008,09,29,13,27,23.60
2008,09,29,13,28,23.60
2008,09,29,13,29,23.60
2008,09,29,13,30,23.50
2008,09,29,13,31,23.50
2008,09,29,13,32,23.50
2008,09,29,13,33,23.50
2008,09,29,13,34,23.60
2008,09,29,13,35,23.60
2008,09,29,13,36,23.70
2008,09,29,13,37,23.80
2008,09,29,13,38,23.90
2008,09,29,13,39,24.00
2008,09,29,13,40,24.10
2008,09,29,13,41,24.20
2008,09,29,13,42,24.30
2008,09,29,13,43,24.40
2008,09,29,13,44,24.40
2008,09,29,13,45,24.50
2008,09,29,13,46,24.50
2008,09,29,13,47,24.50
2008,09,29,13,48,24.60
2008,09,29,13,49,24.60
2008,09,29,13,50,24.70
2008,09,29,13,51,24.80
2008,09,29,13,52,24.80
2008,09,29,13,53,24.90
2008,09,29,13,54,24.90
2008,09,29,13,55,24.80
2008,09,29,13,56,24.80
2008,09,29,13,57,24.80
2008,09,29,13,58,24.80
2008,09,29,13,59,24.90
2008,09,29,14,00,24.90
2008,09,29,14,01,24.90
2008,09,29,14,02,24.90
2008,09,29,14,03,24.90
2008,09,29,14,04,24.90
2008,09,29,14,05,24.90
2008,09,29,14,06,24.90
2008,09,29,14,07,24.90
2008,09,29,14,08,24.90
2008,09,29,14,09,24.90
2008,09,29,14,10,24.90
2008,09,29,14,11,24.90
2008,09,29,14,12,24.90
2008,09,29,14,13,24.90
2008,09,29,14,14,25.00
2008,09,29,14,15,25.10
2008,09,29,14,16,25.20
2008,09,29,14,17,25.20
2008,09,29,14,18,25.30
2008,09,29,14,19,25.30
2008,09,29,14,20,25.30
2008,09,29,14,21,25.20
2008,09,29,14,22,25.20
2008,09,29,14,23,25.20
2008,09,29,14,24,25.10
2008,09,29,14,25,25.10
2008,09,29,14,26,25.10
2008,09,29,14,27,25.20
2008,09,29,14,28,25.20
2008,09,29,14,29,25.30
2008,09,29,14,30,25.40
2008,09,29,14,31,25.40
2008,09,29,14,32,25.50
2008,09,29,14,33,25.60
2008,09,29,14,34,25.60
2008,09,29,14,35,25.70
2008,09,29,14,36,25.80
2008,09,29,14,37,25.90
2008,09,29,14,38,25.90
2008,09,29,14,39,26.00
2008,09,29,14,40,26.10
2008,09,29,14,41,26.10
2008,09,29,14,42,26.10
2008,09,29,14,43,26.20
2008,09,29,14,44,26.20
2008,09,29,14,45,26.20
2008,09,29,14,46,26.20
2008,09,29,14,47,26.20
2008,09,29,14,48,26.30
2008,09,29,14,49,26.30
2008,09,29,14,50,26.30
2008,09,29,14,51,26.30
2008,09,29,14,52,26.30
2008,09,29,14,53,26.30
2008,09,29,14,54,26.30
2008,09,29,14,55,26.20
2008,09,29,14,56,26.20
2008,09,29,14,57,26.20
2008,09,29,14,58,26.20
2008,09,29,14,59,26.30
2008,09,29,15,00,26.30
2008,09,29,15,01,26.30
2008,09,29,15,02,26.40
2008,09,29,15,03,26.40
2008,09,29,15,04,26.30
2008,09,29,15,05,26.30
2008,09,29,15,06,26.30
2008,09,29,15,07,26.30
2008,09,29,15,08,26.30
2008,09,29,15,09,26.30
2008,09,29,15,10,26.30
2008,09,29,15,11,26.30
2008,09,29,15,12,26.30
2008,09,29,15,13,26.30
2008,09,29,15,14,26.20
2008,09,29,15,15,26.20
2008,09,29,15,16,26.10
2008,09,29,15,17,25.90
2008,09,29,15,18,25.90
2008,09,29,15,19,25.80
2008,09,29,15,20,25.70
2008,09,29,15,21,25.60
2008,09,29,15,22,25.50
2008,09,29,15,23,25.50
2008,09,29,15,24,25.40
2008,09,29,15,25,25.40
2008,09,29,15,26,25.40
2008,09,29,15,27,25.40
2008,09,29,15,28,25.50
2008,09,29,15,29,25.60
2008,09,29,15,30,25.60
2008,09,29,15,31,25.70
2008,09,29,15,32,25.80
2008,09,29,15,33,25.90
2008,09,29,15,34,25.90
2008,09,29,15,35,25.90
2008,09,29,15,36,26.00
2008,09,29,15,37,26.10
2008,09,29,15,38,26.20
2008,09,29,15,39,26.30
2008,09,29,15,40,26.30
2008,09,29,15,41,26.40
2008,09,29,15,42,26.40
2008,09,29,15,43,26.40
2008,09,29,15,44,26.50
2008,09,29,15,45,26.60
2008,09,29,15,46,26.60
2008,09,29,15,47,26.60
2008,09,29,15,48,26.70
2008,09,29,15,49,26.70
2008,09,29,15,50,26.70
2008,09,29,15,51,26.70
2008,09,29,15,52,26.70
2008,09,29,15,53,26.80
2008,09,29,15,54,26.80
2008,09,29,15,55,26.80
2008,09,29,15,56,26.80
2008,09,29,15,57,26.80
2008,09,29,15,58,26.80
2008,09,29,15,59,26.90
2008,09,29,16,00,26.90
2008,09,29,16,01,27.00
2008,09,29,16,02,27.00
2008,09,29,16,03,27.00
2008,09,29,16,04,26.90
2008,09,29,16,05,26.90
2008,09,29,16,06,26.90
2008,09,29,16,07,26.90
2008,09,29,16,08,26.90
2008,09,29,16,09,26.90
2008,09,29,16,10,26.90
2008,09,29,16,11,27.00
2008,09,29,16,12,27.00
2008,09,29,16,13,27.10
2008,09,29,16,14,27.20
2008,09,29,16,15,27.20
2008,09,29,16,16,27.30
2008,09,29,16,17,27.30
2008,09,29,16,18,27.30
2008,09,29,16,19,27.40
2008,09,29,16,20,27.40
2008,09,29,16,21,27.40
2008,09,29,16,22,27.50
2008,09,29,16,23,27.60
2008,09,29,16,24,27.60
2008,09,29,16,25,27.60
2008,09,29,16,26,27.50
2008,09,29,16,27,27.50
2008,09,29,16,28,27.50
2008,09,29,16,29,27.50
2008,09,29,16,30,27.40
2008,09,29,16,31,27.30
2008,09,29,16,32,27.30
2008,09,29,16,33,27.20
2008,09,29,16,34,27.20
2008,09,29,16,35,27.20
2008,09,29,16,36,27.30
2008,09,29,16,37,27.30
2008,09,29,16,38,27.30
2008,09,29,16,39,27.30
2008,09,29,16,40,27.20
2008,09,29,16,41,27.10
2008,09,29,16,42,27.00
2008,09,29,16,43,26.90
2008,09,29,16,44,26.90
2008,09,29,16,45,26.80
2008,09,29,16,46,26.80
2008,09,29,16,47,26.80
2008,09,29,16,48,26.80
2008,09,29,16,49,26.80
2008,09,29,16,50,26.90
2008,09,29,16,51,26.90
2008,09,29,16,52,26.80
2008,09,29,16,53,26.80
2008,09,29,16,54,26.70
2008,09,29,16,55,26.70
2008,09,29,16,56,26.60
2008,09,29,16,57,26.60
2008,09,29,16,58,26.60
2008,09,29,16,59,26.60
2008,09,29,17,00,26.60
2008,09,29,17,01,26.60
2008,09,29,17,02,26.70
2008,09,29,17,03,26.70
2008,09,29,17,04,26.70
2008,09,29,17,05,26.80
2008,09,29,17,06,26.90
2008,09,29,17,07,26.90
2008,09,29,17,08,26.90
2008,09,29,17,09,26.90
2008,09,29,17,10,26.90
2008,09,29,17,11,26.90
2008,09,29,17,12,26.90
2008,09,29,17,13,26.90
2008,09,29,17,14,26.80
2008,09,29,17,15,26.80
2008,09,29,17,16,26.70
2008,09,29,17,17,26.60
2008,09,29,17,18,26.40
2008,09,29,17,19,26.30
2008,09,29,17,20,26.10
2008,09,29,17,21,25.90
2008,09,29,17,22,25.80
2008,09,29,17,23,25.60
2008,09,29,17,24,25.50
2008,09,29,17,25,25.40
2008,09,29,17,26,25.30
2008,09,29,17,27,25.30
2008,09,29,17,28,25.20
2008,09,29,17,29,25.20
2008,09,29,17,30,25.10
2008,09,29,17,31,25.10
2008,09,29,17,32,25.00
2008,09,29,17,33,24.90
2008,09,29,17,34,24.80
2008,09,29,17,35,24.70
2008,09,29,17,36,24.60
2008,09,29,17,37,24.50
2008,09,29,17,38,24.40
2008,09,29,17,39,24.40
2008,09,29,17,40,24.20
2008,09,29,17,41,24.10
2008,09,29,17,42,24.10
2008,09,29,17,43,24.00